Regional Weather Roundup
Issued by NWS

Home | Current Version | Previous Version | Text Only | Print | Product List | Glossary Off
Versions: 1 2 3 4 5 6 7 8 9 10 11 12 13 14 15 16 17 18 19 20 21 22 23 24 25 26 27 28 29 30 31 32 33 34 35 36 37 38 39 40 41 42 43 44 45 46 47 48 49 50

000
ASUS45 KABQ 300010
RWRNM
NEW MEXICO REGIONAL WEATHER ROUNDUP
NATIONAL WEATHER SERVICE ALBUQUERQUE NM
600 PM MDT MON JUN 29 2015

NOTE: "FAIR" MEANS FEW OR NO CLOUDS BELOW 12,000 FEET AGL WITH NO
       SIGNIFICANT WEATHER OR OBSTRUCTIONS TO VISION.

      THIS PRODUCT IS RELEASED AS TWO VERSIONS.  ONE VERSION NEAR
      THE TOP OF THE HOUR CONTAINING PRELIMINARY DATA FROM ALBUQUERQUE
      AND OTHER STATIONS.  A FINAL VERSION WITH ADDITIONAL DATA IS
      ISSUED ABOUT 10 MINUTES AFTER THE HOUR.

NMZ501-503-504-510>518-300100-
NORTHWEST PLATEAU/NORTHCENTRAL MOUNTAINS

CITY           SKY/WX    TMP DP  RH WIND       PRES   REMARKS
FARMINGTON     SUNNY     89  45  21 E7        30.08F
6HR MIN TEMP:  86; 6HR MAX TEMP:  94;

LOS ALAMOS     PTSUNNY   76  43  30 SE6       30.30R
SANTA FE       PTSUNNY   80  43  26 SE15      30.22S
6HR MIN TEMP:  76; 6HR MAX TEMP:  90;

TAOS           MOSUNNY   77  43  29 S12       30.29R
ANGEL FIRE     FAIR      66  52  60 E15G23    30.43S

$$
NMZ402-403-502-505>509-300100-
WESTCENTRAL MOUNTAINS/SOUTHWEST MOUNTAINS

CITY           SKY/WX    TMP DP  RH WIND       PRES   REMARKS
GALLUP         PTSUNNY   90  40  17 NE6       30.18F
6HR MIN TEMP:  79; 6HR MAX TEMP:  93; 6HR PCP:  0.02;

GRANTS         PTSUNNY   91  38  15 E8        30.20S
SILVER CITY      N/A     88  45  22 W9        30.14F

$$
NMZ407-409-411-412-300100-
SOUTHERN DESERTS

CITY           SKY/WX    TMP DP  RH WIND       PRES   REMARKS
LORDSBURG      FAIR      91  45  19 N16       30.01S
DEMING         MOSUNNY   95  43  16 E9        30.01F
6HR MIN TEMP:  90; 6HR MAX TEMP:  98;

LAS CRUCES     PTSUNNY   95  41  15 SE7       30.03F
HOLLOMAN AFB   PTSUNNY   92  46  20 E8        30.00F
ALAMOGORDO     CLOUDY    91  46  21 NE7       30.02F
T OR C         PTSUNNY   95  45  17 E13G20    30.04F
6HR MIN TEMP:  86; 6HR MAX TEMP:  97;


$$
NMZ519>523-300100-
CENTRAL VALLEYS/CENTRAL HIGHLANDS

CITY           SKY/WX    TMP DP  RH WIND       PRES   REMARKS
ALBUQUERQUE    CLOUDY    89  43  20 SE10      30.10F
6HR MIN TEMP:  86; 6HR MAX TEMP:  95;

DOUBLE EAGLE   PTSUNNY   90  45  20 VRB6      30.15F
MORIARTY ARPT    N/A     82  44  25 E10       30.23S
6HR MIN TEMP:  77; 6HR MAX TEMP:  87;

CLINES CORNERS CLOUDY    72  49  44 E12       30.29R
6HR MIN TEMP:  71; 6HR MAX TEMP:  81; 6HR PCP: TRACE;

BELEN          FAIR      92  39  15 E6        30.09S
6HR MIN TEMP:  87; 6HR MAX TEMP:  96;

SOCORRO        FAIR      93  47  20 SE17G24   30.07S
6HR MIN TEMP:  86; 6HR MAX TEMP:  95;


$$
NMZ524>526-539-540-300100-
SOUTHCENTRAL MOUNTAINS

CITY           SKY/WX    TMP DP  RH WIND       PRES   REMARKS
RUIDOSO        PTSUNNY   73  52  46 SW9       30.27F

$$
NMZ527>531-300100-
NORTHEAST HIGHLANDS/NORTHEAST PLAINS

CITY           SKY/WX    TMP DP  RH WIND       PRES   REMARKS
LAS VEGAS      CLOUDY    65  52  62 E22G30    30.33S
6HR MIN TEMP:  62; 6HR MAX TEMP:  81; 6HR PCP: TRACE;

RATON          PTSUNNY   76  52  43 S13       30.28R
6HR MIN TEMP:  76; 6HR MAX TEMP:  82;

CLAYTON        SUNNY     80  52  37 S9        30.20F
6HR MIN TEMP:  70; 6HR MAX TEMP:  87; 6HR PCP:  0.02;


$$
NMZ532>537-300100-
EASTCENTRAL PLAINS

CITY           SKY/WX    TMP DP  RH WIND       PRES   REMARKS
TUCUMCARI      LGT RAIN  72  61  68 NE17      30.11R
6HR MIN TEMP:  72; 6HR MAX TEMP:  94; 6HR PCP: TRACE;

CANNON AFB     MOSUNNY   86  53  32 NE20G25   30.10R
6HR MIN TEMP:  79; 6HR MAX TEMP:  90; 6HR PCP: TRACE;

CLOVIS AIRPORT MOSUNNY   86  55  35 E15G23    30.11S

$$
NMZ028-029-538-300100-
SOUTHEAST PLAINS

CITY           SKY/WX    TMP DP  RH WIND       PRES   REMARKS
ROSWELL        LGT RAIN  90  53  28 E16       30.00R
6HR MIN TEMP:  90; 6HR MAX TEMP:  98; 6HR PCP: TRACE;

ARTESIA        PTSUNNY   95  52  23 E25G36    29.99R
CARLSBAD       MOSUNNY   96  52  22 SE12G20   29.94F
6HR MIN TEMP:  92; 6HR MAX TEMP:  99;

HOBBS          SUNNY     90  50  25 SE6       30.03R


$$



USA.gov is the U.S. government's official web portal to all federal, state and local government web resources and services.